Location: Unspecified
(29.9680°N, 0.0000°E)
Time: 06:39:36
(UTC+00:00)

Envisat - Visible Passes

Search period start: 23 May 2019 00:00
Search period end: 02 June 2019 00:00
Orbit: 764 x 766 km, 98.2° (Epoch: 22 May)

Date Brightness Start Highest point End Pass type
(mag) Time Alt. Az. Time Alt. Az. Time Alt. Az.
24 May 5.6 19:38:27 10° SW 19:42:04 20° W 19:45:43 10° NW visible
27 May 5.2 19:26:38 10° SSW 19:30:47 26° W 19:34:59 10° NW visible
29 May 5.8 19:54:06 10° WSW 19:56:28 13° W 19:58:51 10° WNW visible
30 May 4.8 19:14:58 10° SSW 19:19:31 33° W 19:24:05 10° NW visible
01 Jun 5.6 19:41:49 10° SW 19:45:10 18° W 19:48:31 10° NW visible
